TimeCST,TemperatureF,Dew PointF,Humidity,Sea Level PressureIn,VisibilityMPH,Wind Direction,Wind SpeedMPH,Gust SpeedMPH,PrecipitationIn,Events,Conditions,WindDirDegrees,DateUTC
12:56 AM,1.0,-5.1,75,30.10,10.0,Calm,Calm,-,N/A,,Overcast,0,2014-02-01 06:56:00
1:56 AM,3.0,-4.0,73,30.10,10.0,Calm,Calm,-,N/A,,Overcast,0,2014-02-01 07:56:00
2:56 AM,3.9,-4.0,70,30.08,3.0,Calm,Calm,-,0.00,Snow,Light Snow,0,2014-02-01 08:56:00
3:01 AM,3.9,-2.9,73,30.04,1.8,Calm,Calm,-,0.00,Snow,Light Snow,0,2014-02-01 09:01:00
3:10 AM,3.9,-2.0,76,30.04,2.5,Calm,Calm,-,0.00,Snow,Light Snow,0,2014-02-01 09:10:00
3:17 AM,3.9,-2.0,76,30.03,3.0,Calm,Calm,-,0.00,Snow,Light Snow,0,2014-02-01 09:17:00
3:38 AM,3.9,-0.9,80,30.04,1.8,Calm,Calm,-,0.00,Snow,Light Snow,0,2014-02-01 09:38:00
3:56 AM,3.9,-0.9,80,30.07,2.0,Calm,Calm,-,0.00,Snow,Light Snow,0,2014-02-01 09:56:00
4:30 AM,5.0,-0.0,80,30.03,1.8,Calm,Calm,-,0.00,Snow,Light Snow,0,2014-02-01 10:30:00
4:56 AM,5.0,1.0,84,30.06,1.0,Calm,Calm,-,0.01,Snow,Light Snow,0,2014-02-01 10:56:00
5:56 AM,6.1,1.9,83,30.05,1.2,Calm,Calm,-,0.02,Snow,Light Snow,0,2014-02-01 11:56:00
6:56 AM,7.0,3.9,87,30.06,1.0,Calm,Calm,-,0.02,Snow,Light Snow,0,2014-02-01 12:56:00
7:37 AM,8.1,3.9,83,30.01,0.8,Calm,Calm,-,0.01,Snow,Light Snow,0,2014-02-01 13:37:00
7:44 AM,8.1,3.9,83,30.00,1.0,Calm,Calm,-,0.01,Snow,Light Snow,0,2014-02-01 13:44:00
7:56 AM,8.1,3.9,83,30.04,1.2,Calm,Calm,-,0.01,Snow,Light Snow,0,2014-02-01 13:56:00
8:46 AM,9.0,6.1,88,29.99,0.8,Calm,Calm,-,0.00,Snow,Light Snow,0,2014-02-01 14:46:00
8:56 AM,9.0,5.0,84,30.03,0.8,Calm,Calm,-,0.01,Snow,Light Snow,0,2014-02-01 14:56:00
9:03 AM,9.0,5.0,84,29.99,1.2,West,3.5,-,0.00,Snow,Light Snow,270,2014-02-01 15:03:00
9:26 AM,10.0,6.1,84,29.98,2.0,Calm,Calm,-,0.00,Snow,Light Snow,0,2014-02-01 15:26:00
9:34 AM,10.0,6.1,84,29.98,2.5,WSW,3.5,-,0.00,Snow,Light Snow,250,2014-02-01 15:34:00
9:44 AM,10.0,6.1,84,29.99,4.0,WSW,3.5,-,0.00,,Overcast,240,2014-02-01 15:44:00
9:56 AM,10.9,7.0,84,30.02,4.0,Calm,Calm,-,0.00,,Overcast,0,2014-02-01 15:56:00
10:15 AM,10.9,7.0,84,29.98,4.0,Calm,Calm,-,0.00,Snow,Light Snow,0,2014-02-01 16:15:00
10:29 AM,10.9,7.0,84,29.98,6.0,West,3.5,-,0.00,,Mostly Cloudy,260,2014-02-01 16:29:00
10:56 AM,12.0,7.0,80,30.03,7.0,WSW,3.5,-,0.00,,Mostly Cloudy,240,2014-02-01 16:56:00
11:37 AM,12.9,8.1,81,29.99,2.5,WSW,5.8,-,0.00,Snow,Light Snow,240,2014-02-01 17:37:00
11:56 AM,12.9,8.1,81,30.01,2.5,WSW,4.6,-,0.00,Snow,Light Snow,240,2014-02-01 17:56:00
12:19 PM,12.9,9.0,84,29.97,4.0,WSW,6.9,-,0.00,Snow,Light Snow,250,2014-02-01 18:19:00
12:30 PM,14.0,9.0,80,29.97,4.0,West,5.8,-,0.00,Snow,Light Snow,260,2014-02-01 18:30:00
12:56 PM,15.1,10.0,80,30.01,4.0,WSW,5.8,-,0.00,Snow,Light Snow,250,2014-02-01 18:56:00
1:16 PM,16.0,10.0,77,29.96,6.0,SW,4.6,-,0.00,,Haze,230,2014-02-01 19:16:00
1:56 PM,16.0,10.9,81,29.99,7.0,WNW,4.6,-,0.00,,Partly Cloudy,290,2014-02-01 19:56:00
2:56 PM,18.0,12.0,78,29.99,9.0,WSW,3.5,-,N/A,,Clear,240,2014-02-01 20:56:00
3:56 PM,17.1,12.0,81,29.99,9.0,Calm,Calm,-,N/A,,Clear,0,2014-02-01 21:56:00
4:56 PM,18.0,12.0,78,30.01,9.0,Calm,Calm,-,N/A,,Overcast,0,2014-02-01 22:56:00
5:56 PM,19.0,14.0,81,30.02,9.0,Calm,Calm,-,N/A,,Overcast,0,2014-02-01 23:56:00
6:21 PM,19.0,14.0,81,30.01,10.0,West,3.5,-,N/A,,Overcast,270,2014-02-02 00:21:00
6:56 PM,21.9,15.1,75,30.05,10.0,West,6.9,-,N/A,,Overcast,280,2014-02-02 00:56:00
7:46 PM,19.9,12.0,71,30.05,10.0,WNW,9.2,-,N/A,,Partly Cloudy,300,2014-02-02 01:46:00
7:56 PM,19.0,10.9,71,30.09,10.0,WNW,10.4,-,N/A,,Clear,290,2014-02-02 01:56:00
8:56 PM,10.9,7.0,84,30.12,9.0,West,3.5,-,N/A,,Clear,280,2014-02-02 02:56:00
9:56 PM,6.1,3.0,87,30.14,5.0,WSW,3.5,-,N/A,,Clear,240,2014-02-02 03:56:00
10:56 PM,8.1,5.0,87,30.16,6.0,West,8.1,-,N/A,,Clear,270,2014-02-02 04:56:00
11:56 PM,10.0,7.0,87,30.17,6.0,West,8.1,-,N/A,,Clear,260,2014-02-02 05:56:00